EA3ANS-1 Weather Reports


Display with metric or nautical units.
time (UTC)temp
F
wind
direction
speed
MPH
gust
MPH
rain 1hr
in
rain 24hr
in
rain mn
in
humidity
%
barometer
mb
20260505011244 54 336 5.0 4.0 0.00 0.10 0.00 1011.7
20260505010243 54 342 6.0 5.0 0.00 0.10 0.00 1011.8
20260505005243 54 309 6.0 6.0 0.00 0.10 0.00 1012.0
20260505004245 55 308 4.0 3.0 0.00 0.10 0.00 1012.0
20260505003246 54 305 2.0 4.0 0.00 0.10 0.00 1011.9
20260505002243 54 326 5.0 3.0 0.00 0.10 0.00 1011.9
20260505001240 54 339 4.0 3.0 0.00 0.10 0.00 1011.9
20260505000239 54 336 2.0 4.0 0.00 0.10 0.00 1011.9
20260504235240 54 30 2.0 1.0 0.00 0.10 0.00 1011.9
20260504234239 54 162 0.0 1.0 0.00 0.10 0.00 1011.9
20260504233242 54 205 1.0 0.0 0.00 0.10 0.00 1011.8
20260504232244 54 295 0.0 0.0 0.00 0.10 0.00 1011.7
20260504231241 55 295 2.0 0.0 0.00 0.10 0.00 1011.8
20260504230240 55 242 1.0 1.0 0.00 0.10 0.00 1011.8
20260504225240 54 24 0.0 0.0 0.00 0.10 0.00 1011.8
20260504224240 55 24 0.0 0.0 0.00 0.10 0.00 1011.7
20260504223241 55 24 0.0 0.0 0.00 0.10 0.00 1011.6
20260504222244 56 24 0.0 0.0 0.00 0.10 0.00 1011.5
20260504221246 56 24 0.0 0.0 0.00 0.10 0.00 1011.4
20260504220241 56 24 2.0 0.0 0.00 0.10 0.00 1011.5
20260504215240 56 13 0.0 0.0 0.09 0.02 0.10 1011.4
20260504214240 56 194 0.0 0.0 0.09 0.02 0.10 1011.5
20260504213243 56 210 0.0 2.0 0.09 0.02 0.10 1011.4
20260504212245 57 135 2.0 2.0 0.09 0.02 0.10 1011.4
20260504211245 57 107 1.0 2.0 0.09 0.02 0.10 1011.4
20260504210248 57 162 2.0 2.0 0.09 0.02 0.10 1011.4
20260504205245 57 212 2.0 0.0 0.00 0.02 0.10 1011.5
20260504204243 57 193 4.0 2.0 0.00 0.02 0.10 1011.3
20260504203240 57 73 0.0 0.0 0.00 0.02 0.10 1011.1
20260504202241 57 124 4.0 5.0 0.00 0.02 0.10 1011.4
20260504201240 58 59 6.0 3.0 0.00 0.02 0.07 1011.4
20260504200243 58 105 2.0 3.0 0.00 0.02 0.04 1011.6
20260504195246 59 249 6.0 6.0 0.00 0.02 0.01 1011.8
20260504194242 60 256 5.0 7.0 0.00 0.02 0.01 1011.7
20260504193243 61 235 5.0 3.0 0.00 0.02 0.01 1011.5
20260504192245 62 252 7.0 3.0 0.00 0.02 0.01 1010.9
20260504191248 64 283 5.0 6.0 0.00 0.02 0.01 1010.7
20260504190250 64 257 3.0 0.0 0.00 0.02 0.01 1010.7
20260504185253 64 169 1.0 2.0 0.00 0.02 0.01 1010.5
20260504184256 64 98 3.0 2.0 0.00 0.02 0.01 1010.3
20260504183252 64 142 5.0 4.0 0.00 0.02 0.01 1010.2
20260504182255 65 169 5.0 4.0 0.00 0.02 0.01 1010.2
20260504181257 65 132 5.0 6.0 0.00 0.02 0.01 1009.7
20260504180300 66 174 6.0 7.0 0.00 0.02 0.01 1009.6
20260504175300 66 226 2.0 1.0 0.00 0.02 0.01 1009.4
20260504174300 66 150 3.0 3.0 0.00 0.02 0.01 1009.5
20260504173303 66 122 3.0 3.0 0.00 0.02 0.01 1009.5
20260504172257 66 121 4.0 4.0 0.00 0.02 0.01 1009.7
20260504171251 66 214 4.0 2.0 0.00 0.02 0.01 1009.6
20260504170249 66 205 2.0 3.0 0.00 0.02 0.01 1009.8
20260504160245 67 127 0.0 0.0 0.00 0.02 0.01 1009.9
20260504150249 64 198 5.0 5.0 0.01 0.02 0.01 1010.4
20260504141244 65 198 1.0 2.0 0.00 0.02 0.00 1010.8
20260504140246 66 222 5.0 8.0 0.00 0.02 0.00 1010.9
20260504130243 68 120 8.0 6.0 0.00 0.02 0.00 1010.8
20260504120243 68 150 9.0 18.0 0.00 0.02 0.00 1010.7
20260504110243 71 201 6.0 6.0 0.00 0.02 0.00 1010.9
20260504100242 70 159 4.0 6.0 0.00 0.02 0.00 1011.4
20260504081248 66 316 4.0 2.0 0.00 0.02 0.00 1012.1
20260504080243 65 4 4.0 2.0 0.00 0.02 0.00 1012.1
20260504070247 63 333 3.0 7.0 0.00 0.02 0.00 1012.7
20260504060248 60 208 3.0 3.0 0.00 0.02 0.00 1012.3
20260504050242 59 39 0.0 0.0 0.00 0.02 0.00 1012.7
20260504045244 59 319 3.0 2.0 0.00 0.02 0.00 1012.8
20260504044247 59 343 3.0 3.0 0.00 0.02 0.00 1012.8
20260504043243 59 350 0.0 0.0 0.00 0.02 0.00 1013.0
20260504042246 59 350 2.0 0.0 0.00 0.02 0.00 1013.0
20260504041248 59 34 0.0 0.0 0.00 0.02 0.00 1012.9
20260504040247 59 34 0.0 0.0 0.00 0.02 0.00 1012.9
20260504035250 59 34 0.0 0.0 0.00 0.02 0.00 1012.9
20260504034252 59 34 0.0 0.0 0.00 0.02 0.00 1012.8
20260504033255 59 34 0.0 0.0 0.00 0.02 0.00 1012.8
20260504032247 59 34 0.0 0.0 0.00 0.02 0.00 1012.9
20260504030252 59 53 1.0 2.0 0.00 0.02 0.00 1013.0
20260504025255 59 121 1.0 0.0 0.00 0.02 0.00 1013.0
20260504024258 59 39 0.0 0.0 0.00 0.02 0.00 1013.0
20260504023300 59 39 0.0 0.0 0.00 0.02 0.00 1012.9
20260504022304 59 39 0.0 0.0 0.00 0.02 0.00 1012.8
20260504021252 59 38 0.0 0.0 0.00 0.02 0.00 1012.9
20260504020251 59 111 2.0 2.0 0.00 0.02 0.00 1013.0
20260504015254 59 138 3.0 3.0 0.00 0.02 0.00 1013.2
20260504014256 59 246 0.0 0.0 0.00 0.02 0.00 1013.2
20260504013255 59 246 0.0 0.0 0.00 0.02 0.00 1013.1
20260504012257 59 246 0.0 0.0 0.00 0.02 0.00 1013.3